Showing default

QIANFAN-40, 62241

Orbit data source: Space-Track

QIANFAN-40, 62241 is a Chinese payload satellite in LEO that was launched on Thu, 05 Dec 2024 UTC via a CHANG ZHENG 6A launch vehicle from the Taiyaun Space Center, China (TSC). Payload-class satellites include a variety of spacecraft equipped with specific instruments for various scientific and technological missions. These include communications satellites like Starlink; space stations such as the ISS; scientific satellites like the Hubble; Earth observation satellites from companies like Planet Labs, Umbra, and HawkEye 360; GPS; miniature CubeSats for education and research; and military/defense satellites.

Loading next visibility...
Identifier
62241, 2024-232E
Orbit
LEO
Country
Flag of CNCN / PRC
Related business
Manufacturer
SECM
Mission
Operational Commercial Communications
Bus & Motor
QIANFAN, Unknown motor
Mass
267 kg wet, ~267 kg dry
Launch date (UTC)
2024-12-05 (1 year ago)
Launch vehicle
CHANG ZHENG 6A
Launch site
Taiyaun Space Center, China (TSC)
Object type
Payload
Rocket body
Debris
Shape & HBR
Box + 1 Pan, 5.0 m
Radar Cross Section
13.200 m², Large (>1 m²)

Expand to show TLE details & history
Last TLE update: 5 hours ago

TLE from 5 hours ago
0 QIANFAN-40
1 62241U 24232E   26035.15420414  .00000013  00000-0  10480-5 0  9997
2 62241  89.0038  35.4482 0015185  53.8141 306.4412 13.50995631106800
Epoch: 2026-02-04T03:42Z
TLE epoch observation values (Epoch: 2026-02-04T03:42:03.237Z)
Latitude
-0.00004°
Longitude
-154.39015°
Altitude
1,064.844 km
Speed
7.323 km/s
True Right ascension
02h 21m 47s
True Declination
0° 00' 00"
Sunlit
Object was in daylight at epoch
Visualization orbit readout
Latitude
Unknown
Longitude
Unknown
Altitude
Unknown
Speed
Unknown
Apparent Right ascension
Unknown
Apparent Declination
Unknown
Sunlit
N/A
Visualization observer readout
Local Sidereal Time
10:47:50
Azimuth
Unknown
Elevation
Unknown
Doppler factor
Unknown
Orbital elements
Apogee altitude
1,076.952 km
Perigee altitude
1,054.345 km
Semi-major axis
7,443.786 km
Eccentricity
0.00152
Inclination
89.0038°
RAAN
35.4482°
Arg. of periapsis
53.8141°
True anomaly
306.30106°
Mean anomaly
306.4412°
Eccentric anomaly
306.37115°
Mean motion
3.3795 °/min
Orbital period
106.52 mins
BSTAR
0.000001048
Loading maneuver chart data...
Computing Atmospheric mass density...
Loading historical data...
Loading historical data...
Loading historical data...
Loading historical data...
Loading historical data...
Loading historical data...
Loading historical data...

Documentation

Showing up to 5 results
|